Wind_Speed
12 12 12 12 13 12 11 10 8 7 6 6 5 4 1 1 3 9 10 7 5 7 7 8 2 5 3 6 8 6 8 11 12 13 10 10 12 7 8 11 8 3 7 10 14
14 14 14 14 14 14 13 11 10 8 7 6 5 4 1 1 2 7 12 7 6 7 7 11 1 5 2 8 12 13 6 4 10 12 11 11 11 10 8 8 10 16 14 11 12
14 14 14 15 15 15 14 12 11 9 8 6 5 3 1 2 2 5 10 8 7 8 8 6 6 5 12 21 11 10 5 7 11 13 11 12 11 8 5 10 9 14 10 13 15
14 15 16 15 15 15 15 14 13 11 9 7 6 3 3 4 3 8 8 11 9 8 7 5 7 8 14 7 5 6 6 2 11 7 10 11 12 11 10 9 9 8 5 11 15
16 17 17 16 16 15 15 15 14 13 11 9 7 5 5 7 9 11 10 13 11 9 7 3 6 10 12 4 8 10 21 13 8 7 11 12 13 13 13 12 9 11 7 11 16
17 17 17 17 16 16 15 14 14 14 12 11 10 8 8 8 7 13 10 14 14 9 2 8 8 17 11 3 7 10 1 5 8 10 8 12 12 13 13 13 13 12 11 12 15
17 17 17 18 17 17 16 14 14 14 14 13 12 11 11 7 7 11 10 13 14 10 5 9 11 8 7 3 6 3 13 4 11 10 11 10 13 13 14 10 11 14 12 10 13
17 17 17 18 18 17 16 15 15 15 14 14 13 14 12 4 11 11 10 14 13 12 11 10 10 11 11 11 9 7 15 16 13 11 8 12 18 12 12 11 11 8 9 10 9
17 17 17 16 16 17 17 15 15 15 15 15 14 15 14 12 10 11 14 15 14 13 12 12 10 9 10 11 11 9 13 21 7 13 6 12 6 10 13 13 13 13 10 6 9
18 18 17 16 15 15 15 14 14 15 17 17 16 14 10 13 10 13 15 14 14 11 13 12 9 10 12 18 4 8 13 27 14 13 22 7 15 12 12 15 14 16 15 12 8
19 19 18 17 15 14 12 9 5 11 18 20 9 13 4 2 12 14 16 15 14 14 14 11 11 15 4 1 6 8 24 33 23 15 12 11 11 20 8 8 17 15 16 16 15
18 18 17 16 15 13 12 9 4 15 18 16 22 20 13 12 13 14 18 18 19 18 13 12 17 6 8 9 11 20 22 31 14 8 9 13 9 9 7 6 8 12 14 16 18
17 16 15 15 14 12 12 12 12 11 18 21 23 27 20 16 16 17 21 21 19 17 18 17 15 18 13 13 8 17 17 7 8 7 12 8 10 12 11 6 7 6 11 11 17
16 15 15 13 12 9 8 8 8 7 12 21 25 29 27 21 20 18 21 22 21 22 19 22 16 11 6 15 19 15 9 8 4 11 13 7 4 18 17 12 11 10 7 9 14
17 15 15 13 11 9 6 8 6 2 6 1 18 15 26 30 18 23 24 24 25 22 17 25 14 14 14 19 16 15 9 23 14 15 10 15 18 21 18 16 13 6 3 5 6
18 16 16 13 11 12 7 9 8 5 16 8 16 20 24 29 24 17 26 23 24 22 20 22 7 19 19 17 18 10 8 9 11 14 18 25 26 24 25 20 15 8 5 2 4
17 17 16 15 14 13 14 11 7 14 8 10 13 13 23 26 28 22 27 28 31 26 26 22 17 18 13 17 19 15 13 15 14 15 9 7 16 19 20 18 14 9 5 3 0
17 17 17 16 16 13 15 12 14 12 15 4 7 12 22 26 27 26 27 31 30 28 24 25 17 23 19 20 18 21 21 24 11 5 10 23 6 9 25 20 17 13 9 5 4
16 16 15 16 17 17 20 22 22 17 9 7 8 14 18 24 22 30 28 30 31 32 31 28 27 17 27 23 22 22 25 26 31 10 4 18 16 8 15 19 16 17 14 9 3
12 14 13 16 18 20 21 28 21 20 15 9 10 9 16 22 29 29 33 27 29 31 30 30 13 16 23 27 25 19 21 21 23 9 6 20 35 30 27 21 19 14 13 13 6
8 2 6 13 17 23 25 24 23 23 11 13 13 17 15 18 25 30 29 28 27 28 30 30 27 13 17 26 30 20 21 20 22 25 14 11 11 22 15 15 15 17 13 12 11
7 7 15 15 16 21 24 23 19 20 18 17 16 14 12 14 14 28 27 31 22 26 32 31 28 23 22 27 22 23 23 16 24 19 29 26 27 5 21 23 14 15 15 11 11
9 8 14 15 17 20 20 23 23 23 20 19 17 16 14 15 15 14 21 24 23 23 22 27 28 28 23 25 23 26 19 26 33 32 27 20 14 14 15 12 13 22 19 23 22
8 4 13 14 21 20 21 22 21 22 20 21 20 17 19 16 14 13 14 15 14 16 23 20 18 20 26 26 26 37 31 24 24 26 25 24 22 12 16 13 17 17 19 17 15
7 7 7 9 10 20 20 19 18 25 22 19 21 21 19 18 17 17 15 16 13 18 10 17 22 21 24 25 23 21 22 31 22 24 27 24 19 8 12 7 20 19 20 24 22
11 14 16 24 8 10 19 24 20 15 20 20 22 20 22 23 21 19 18 19 17 13 17 21 26 24 26 22 22 26 17 21 14 13 13 14 19 15 2 9 24 27 25 25 20
17 17 19 18 11 14 14 17 21 19 19 18 18 15 21 19 17 24 23 20 21 21 18 18 22 22 25 22 23 24 19 17 23 18 15 17 14 11 10 9 16 18 20 24 20
Wind_Direction
262 267 269 274 278 287 297 299 301 303 310 315 325 330 314 287 252 213 209 203 177 172 172 148 94 100 40 40 313 177 278 245 87 107 116 133 105 111 107 107 126 104 243 177 159
264 267 270 272 275 277 285 290 289 288 294 298 310 318 298 291 268 234 214 203 184 180 176 135 17 284 252 242 127 167 185 6 93 101 107 108 104 119 111 110 104 117 175 159 159
266 270 271 273 272 272 278 281 279 277 279 283 293 297 145 140 191 261 221 209 200 196 201 156 250 228 248 182 118 72 326 138 103 87 100 124 100 131 106 147 142 158 172 170 164
269 271 270 270 270 272 275 275 273 269 267 268 271 266 183 155 44 257 254 213 208 207 212 117 254 258 263 238 360 272 359 151 118 114 103 102 111 91 102 108 164 181 144 165 171
270 271 270 269 269 271 271 270 267 263 260 260 260 253 217 217 303 269 250 215 211 211 208 238 261 250 249 246 187 250 180 104 129 110 115 110 107 114 101 116 139 156 138 156 170
269 269 270 270 271 269 267 265 261 258 256 256 256 251 234 200 261 250 244 210 209 207 148 244 236 276 3 281 177 307 220 148 160 123 134 119 126 111 116 125 86 92 125 152 169
273 272 272 271 270 268 265 261 256 254 252 252 254 252 243 238 253 263 226 205 208 194 220 263 267 271 273 264 114 208 274 194 168 159 160 156 144 120 138 127 94 94 100 125 164
275 274 274 273 271 268 263 259 255 251 249 249 253 257 251 259 229 237 213 203 207 216 225 251 256 256 272 235 258 241 251 273 194 155 123 158 128 139 154 159 148 110 108 123 134
277 276 276 274 273 270 265 259 254 251 248 246 249 256 256 253 244 221 210 206 216 214 239 248 242 245 262 258 197 84 275 232 260 199 105 162 162 155 171 176 175 180 171 156 150
276 276 276 275 274 272 269 264 259 254 249 243 239 255 268 243 240 210 208 194 211 217 241 257 258 245 229 231 114 83 169 193 219 162 175 94 188 163 180 191 184 184 195 190 192
273 272 273 273 272 271 267 262 286 311 258 242 251 260 302 175 222 206 201 189 216 220 234 239 230 221 155 247 67 201 260 247 243 181 200 167 187 166 168 195 189 184 196 204 205
272 271 270 269 268 265 257 232 282 243 256 240 222 229 227 226 204 200 196 200 204 220 222 235 225 229 289 282 170 227 223 260 222 205 205 184 185 164 160 171 171 205 204 205 206
271 271 269 266 262 257 252 239 252 261 269 244 234 229 212 213 212 207 203 201 208 216 216 223 231 247 265 234 216 255 255 1 141 185 225 209 216 188 188 202 182 177 203 207 212
269 266 267 264 257 256 257 265 248 278 287 259 231 226 215 217 227 206 212 206 213 223 222 233 227 282 199 239 244 255 348 220 188 234 208 232 247 236 185 176 197 151 141 210 211
266 258 258 254 246 195 190 222 215 230 277 33 198 198 209 210 213 209 210 208 218 222 223 226 210 202 226 242 237 301 239 239 225 254 190 223 229 176 184 184 163 143 194 199 182
265 254 247 242 239 227 240 187 166 223 239 187 183 196 199 209 211 209 205 217 219 229 229 247 212 221 245 248 253 275 272 263 241 240 260 237 229 171 187 177 146 138 162 199 234
259 256 240 234 228 223 193 176 214 234 238 184 204 202 202 204 207 209 205 210 213 222 235 230 230 220 239 235 236 240 258 254 223 226 235 310 206 129 142 156 153 148 146 158 72
257 251 244 230 224 205 198 191 227 239 245 312 197 208 208 202 211 209 206 212 215 217 226 231 216 227 230 228 233 229 240 262 258 347 6 343 310 195 156 154 157 165 166 153 129
260 252 242 230 220 207 189 209 217 232 278 299 224 232 206 211 213 210 216 213 215 214 224 231 227 249 233 236 227 236 247 249 270 351 65 251 265 299 170 168 167 164 153 157 234
264 259 243 227 217 208 204 220 227 232 279 271 253 223 234 212 213 209 214 219 221 220 223 236 230 224 254 235 230 232 242 274 280 198 171 259 171 215 186 176 170 160 158 151 186
262 271 196 210 208 211 216 227 238 237 268 235 245 258 271 235 216 220 218 223 222 222 223 234 236 232 276 246 210 224 235 255 274 282 299 282 66 123 156 171 171 166 158 152 143
234 221 233 255 221 220 228 232 234 237 246 248 241 259 267 267 248 225 225 221 220 222 223 229 240 221 196 236 217 227 232 248 256 273 274 289 296 237 195 194 185 174 163 172 169
208 197 260 250 224 228 239 239 239 237 238 235 247 240 247 267 281 268 231 225 234 224 227 226 227 244 247 258 207 212 221 228 248 261 249 260 259 142 153 175 192 190 173 182 184
214 216 235 268 233 233 239 245 243 233 239 230 242 239 238 241 239 254 248 240 223 208 216 226 238 252 240 237 220 240 221 221 239 259 268 268 270 197 219 200 189 191 193 199 200
199 213 286 226 250 240 233 240 243 236 238 238 237 235 231 239 237 234 239 232 226 216 219 219 241 258 259 252 233 270 242 221 225 245 252 259 273 358 163 232 210 212 196 214 218
227 236 221 215 240 251 232 239 243 242 230 230 233 233 234 235 236 240 235 236 244 224 233 232 246 250 264 260 257 268 235 250 249 243 261 277 273 291 28 215 222 233 242 228 222
251 247 247 230 262 254 245 240 236 235 240 241 232 235 233 230 243 238 242 252 243 232 216 225 228 232 245 247 258 263 255 239 251 255 255 261 268 281 344 90 206 246 222 210 208
Height
3171 3171 3171 3171 3170 3169 3169 3168 3167 3166 3166 3165 3165 3164 3164 3163 3163 3163 3164 3165 3165 3165 3165 3166 3167 3168 3169 3170 3160 3159 3163 3160 3160 3160 3164 3165 3165 3167 3168 3168 3170 3169 3165 3167 3169
3169 3169 3169 3169 3168 3168 3167 3167 3166 3166 3165 3165 3164 3164 3163 3163 3162 3162 3164 3164 3165 3165 3165 3166 3172 3173 3169 3159 3158 3163 3165 3157 3161 3162 3163 3166 3165 3168 3169 3169 3169 3169 3166 3168 3170
3167 3167 3166 3166 3166 3166 3166 3165 3165 3165 3165 3164 3164 3164 3163 3162 3162 3161 3162 3164 3165 3164 3164 3165 3171 3170 3170 3153 3156 3162 3162 3160 3165 3164 3164 3166 3167 3168 3169 3170 3169 3167 3166 3168 3171
3164 3164 3164 3164 3163 3163 3163 3163 3163 3163 3163 3163 3163 3163 3163 3162 3164 3161 3162 3164 3164 3163 3163 3165 3172 3169 3162 3145 3152 3158 3162 3161 3166 3166 3163 3166 3168 3170 3170 3172 3170 3168 3167 3169 3172
3161 3161 3161 3160 3160 3160 3160 3161 3161 3161 3161 3161 3161 3162 3162 3161 3161 3160 3161 3162 3163 3163 3163 3168 3170 3166 3162 3160 3162 3158 3166 3164 3166 3166 3167 3169 3169 3172 3173 3173 3171 3169 3169 3170 3173
3158 3158 3158 3157 3157 3157 3157 3158 3158 3159 3159 3159 3160 3160 3160 3160 3161 3159 3159 3161 3162 3163 3163 3168 3168 3164 3139 3163 3168 3161 3165 3167 3167 3168 3168 3169 3172 3173 3175 3173 3171 3171 3171 3173 3175
3155 3155 3154 3154 3154 3154 3154 3155 3155 3156 3157 3157 3158 3158 3157 3159 3158 3156 3157 3159 3161 3163 3167 3168 3166 3160 3162 3163 3165 3165 3160 3161 3166 3167 3167 3168 3172 3173 3176 3174 3174 3173 3173 3175 3176
3152 3151 3151 3150 3150 3150 3151 3151 3152 3153 3154 3155 3156 3155 3153 3155 3156 3156 3156 3157 3160 3164 3167 3167 3166 3164 3162 3163 3165 3167 3167 3163 3163 3167 3167 3169 3171 3174 3176 3177 3176 3175 3176 3176 3177
3148 3148 3147 3147 3147 3147 3147 3148 3149 3150 3151 3152 3154 3153 3152 3152 3153 3154 3155 3157 3160 3163 3165 3164 3164 3167 3167 3166 3168 3167 3165 3165 3167 3165 3172 3170 3168 3172 3175 3176 3177 3178 3177 3178 3178
3144 3144 3144 3144 3143 3144 3144 3145 3146 3147 3148 3149 3150 3153 3151 3150 3152 3152 3154 3156 3160 3163 3164 3164 3166 3169 3170 3167 3165 3170 3166 3164 3164 3163 3170 3172 3167 3172 3173 3174 3174 3176 3177 3178 3179
3140 3140 3140 3140 3140 3141 3143 3144 3148 3147 3142 3145 3148 3148 3150 3148 3152 3152 3154 3157 3160 3162 3163 3164 3166 3166 3164 3166 3169 3173 3168 3166 3163 3167 3161 3168 3165 3171 3172 3174 3172 3174 3175 3176 3178
3136 3136 3136 3137 3137 3138 3140 3141 3144 3142 3138 3138 3141 3143 3146 3151 3151 3152 3154 3157 3158 3159 3162 3163 3161 3159 3161 3167 3171 3161 3162 3161 3163 3164 3165 3165 3167 3168 3170 3172 3173 3173 3172 3175 3178
3132 3132 3132 3133 3134 3136 3137 3138 3138 3138 3136 3133 3135 3138 3143 3148 3148 3149 3152 3153 3156 3157 3159 3159 3159 3157 3160 3163 3164 3155 3161 3158 3161 3163 3162 3163 3164 3165 3168 3171 3172 3173 3173 3173 3176
3128 3128 3129 3130 3133 3133 3135 3136 3137 3137 3135 3126 3125 3130 3138 3143 3144 3147 3149 3153 3153 3154 3157 3156 3156 3157 3155 3156 3158 3156 3156 3158 3160 3160 3157 3160 3161 3161 3163 3167 3168 3170 3172 3173 3174
3124 3124 3125 3127 3129 3131 3134 3134 3135 3138 3136 3119 3123 3129 3133 3137 3141 3142 3147 3149 3149 3151 3157 3148 3155 3157 3158 3156 3156 3155 3158 3162 3157 3155 3154 3153 3153 3151 3161 3163 3165 3167 3171 3173 3174
3119 3121 3121 3123 3125 3128 3130 3131 3135 3141 3126 3121 3122 3125 3129 3132 3137 3140 3144 3146 3148 3148 3153 3147 3151 3153 3156 3156 3155 3157 3158 3155 3154 3153 3149 3144 3150 3151 3154 3159 3161 3165 3169 3172 3172
3114 3116 3118 3119 3122 3123 3126 3131 3137 3130 3120 3119 3121 3123 3126 3129 3133 3135 3138 3141 3143 3144 3143 3145 3146 3153 3155 3157 3157 3159 3158 3153 3152 3147 3143 3140 3142 3145 3151 3155 3159 3164 3166 3170 3171
3109 3111 3113 3115 3117 3120 3124 3130 3129 3119 3118 3116 3118 3119 3123 3126 3129 3131 3133 3137 3140 3141 3142 3142 3144 3149 3152 3153 3153 3154 3155 3149 3144 3148 3154 3146 3144 3146 3148 3152 3156 3159 3162 3167 3168
3104 3105 3108 3111 3114 3117 3120 3122 3118 3115 3116 3115 3116 3117 3118 3122 3125 3128 3128 3131 3134 3137 3139 3138 3138 3142 3146 3148 3151 3148 3148 3147 3144 3153 3168 3168 3156 3151 3148 3149 3153 3154 3156 3160 3163
3101 3101 3103 3106 3109 3112 3114 3113 3114 3114 3117 3117 3116 3114 3115 3116 3120 3122 3124 3128 3130 3132 3136 3134 3135 3138 3141 3143 3145 3146 3146 3145 3144 3141 3155 3147 3148 3138 3147 3148 3151 3152 3156 3155 3158
3099 3100 3100 3101 3105 3107 3107 3109 3111 3110 3115 3117 3117 3114 3111 3111 3114 3116 3120 3123 3125 3127 3130 3131 3133 3135 3148 3137 3141 3144 3141 3142 3144 3140 3135 3131 3137 3140 3147 3151 3151 3151 3155 3155 3156
3096 3099 3099 3100 3103 3102 3104 3107 3109 3110 3112 3113 3114 3113 3111 3108 3109 3111 3114 3116 3119 3122 3123 3125 3127 3129 3132 3136 3136 3137 3136 3140 3141 3140 3139 3138 3135 3136 3137 3145 3149 3149 3153 3154 3155
3092 3097 3096 3098 3098 3100 3101 3103 3105 3107 3108 3109 3111 3112 3112 3110 3109 3107 3108 3113 3116 3117 3119 3123 3125 3123 3128 3134 3131 3131 3131 3136 3138 3138 3136 3137 3137 3137 3140 3143 3146 3144 3148 3149 3149
3091 3095 3095 3092 3094 3096 3098 3098 3099 3101 3102 3105 3107 3109 3110 3110 3110 3109 3108 3110 3113 3113 3115 3118 3119 3118 3120 3122 3128 3127 3128 3131 3133 3134 3134 3133 3134 3134 3135 3140 3140 3142 3143 3145 3146
3088 3090 3089 3090 3090 3090 3093 3094 3094 3096 3100 3102 3103 3104 3106 3108 3109 3109 3109 3109 3110 3112 3115 3119 3120 3119 3118 3119 3124 3126 3127 3124 3129 3131 3133 3133 3133 3134 3135 3139 3137 3138 3138 3138 3137
3083 3081 3081 3082 3085 3088 3088 3090 3091 3091 3095 3097 3099 3100 3103 3105 3106 3106 3106 3108 3108 3110 3113 3116 3117 3120 3117 3117 3117 3119 3121 3121 3123 3126 3129 3131 3132 3136 3133 3134 3133 3134 3135 3134 3137
3077 3079 3080 3081 3083 3086 3086 3087 3088 3090 3089 3092 3094 3096 3098 3101 3100 3103 3102 3103 3105 3106 3109 3113 3115 3117 3116 3117 3116 3115 3116 3120 3122 3124 3127 3130 3132 3128 3130 3132 3132 3132 3134 3129 3120